When you browse on this site, cookies collect data to enhance your experience and personalize the content and advertising you see.
Visit our Privacy Policy to learn more. By continuing to use the site, you agree to this use of cookies and data.

Hourly Weather Borssele

Today, 26 September, Saturday

Time Temperature Precipitation Wind Pressure Humidity
00:00 +12°C° 0 mm 14 mps 748 mmHg 81%
01:00 +12°C° 1.1 mm 13 mps 748 mmHg 80%
02:00 +12°C° 1.1 mm 13 mps 748 mmHg 79%
03:00 +12°C° 1.1 mm 12 mps 748 mmHg 78%
04:00 +10°C° 0.9 mm 12 mps 749 mmHg 79%
05:00 +11°C° 0.9 mm 11 mps 749 mmHg 80%
06:00 +11°C° 0.9 mm 11 mps 750 mmHg 81%
07:00 +11°C° 1.5 mm 11 mps 750 mmHg 80%
08:00 +12°C° 1.5 mm 11 mps 750 mmHg 80%
09:00 +12°C° 1.5 mm 12 mps 751 mmHg 80%
10:00 +12°C° 1 mm 10 mps 751 mmHg 78%
11:00 +13°C° 1 mm 9 mps 751 mmHg 76%
12:00 +13°C° 1 mm 8 mps 751 mmHg 74%
13:00 +15°C° 0.4 mm 8 mps 751 mmHg 72%
14:00 +15°C° 0.4 mm 8 mps 751 mmHg 70%
15:00 +15°C° 0.4 mm 7 mps 751 mmHg 68%
16:00 +15°C° 0.1 mm 7 mps 751 mmHg 72%
17:00 +14°C° 0.1 mm 6 mps 751 mmHg 77%
18:00 +13°C° 0.1 mm 6 mps 751 mmHg 82%
19:00 +12°C° 1.2 mm 7 mps 751 mmHg 84%
20:00 +12°C° 1.2 mm 8 mps 751 mmHg 85%
21:00 +13°C° 1.2 mm 9 mps 751 mmHg 87%
22:00 +13°C° 0.6 mm 10 mps 751 mmHg 86%
23:00 +13°C° 0.6 mm 10 mps 750 mmHg 86%

Tomorrow, 27 September, Sunday

Time Temperature Precipitation Wind Pressure Humidity
00:00 +13°C° 0.6 mm 11 mps 750 mmHg 85%
01:00 +13°C° 1.4 mm 12 mps 749 mmHg 86%
02:00 +14°C° 1.4 mm 13 mps 749 mmHg 86%
03:00 +14°C° 1.4 mm 14 mps 748 mmHg 86%
04:00 +15°C° 1 mm 13 mps 748 mmHg 87%
05:00 +15°C° 1 mm 12 mps 748 mmHg 89%
06:00 +15°C° 1 mm 12 mps 748 mmHg 90%
07:00 +16°C° 0.3 mm 10 mps 749 mmHg 87%
08:00 +17°C° 0.3 mm 9 mps 750 mmHg 84%
09:00 +17°C° 0.3 mm 7 mps 750 mmHg 81%
10:00 +17°C° 0 mm 7 mps 751 mmHg 78%
11:00 +17°C° 0 mm 6 mps 752 mmHg 75%
12:00 +17°C° 0 mm 5 mps 752 mmHg 72%
13:00 +17°C° 0 mm 5 mps 753 mmHg 71%
14:00 +17°C° 0 mm 5 mps 753 mmHg 71%
15:00 +18°C° 0 mm 4 mps 753 mmHg 70%
16:00 +17°C° 0 mm 4 mps 754 mmHg 73%
17:00 +15°C° 0 mm 4 mps 754 mmHg 76%
18:00 +15°C° 0 mm 4 mps 754 mmHg 80%
19:00 +16°C° 0 mm 3 mps 755 mmHg 80%
20:00 +16°C° 0 mm 3 mps 755 mmHg 81%
21:00 +16°C° 0 mm 2 mps 756 mmHg 81%
22:00 +16°C° 0.1 mm 2 mps 755 mmHg 83%
23:00 +16°C° 0.1 mm 2 mps 755 mmHg 84%

Day after tomorrow, 28 September, Monday

Time Temperature Precipitation Wind Pressure Humidity
00:00 +16°C° 0.1 mm 2 mps 755 mmHg 86%
01:00 +16°C° 0.2 mm 2 mps 755 mmHg 88%
02:00 +16°C° 0.2 mm 3 mps 755 mmHg 91%
03:00 +15°C° 0.2 mm 4 mps 755 mmHg 93%
04:00 +16°C° 0.1 mm 5 mps 756 mmHg 94%
05:00 +16°C° 0.1 mm 5 mps 756 mmHg 94%
06:00 +16°C° 0.1 mm 5 mps 756 mmHg 94%
07:00 +17°C° 0.3 mm 5 mps 756 mmHg 93%
08:00 +17°C° 0.3 mm 5 mps 756 mmHg 93%
09:00 +17°C° 0.3 mm 5 mps 756 mmHg 92%
10:00 +17°C° 0.4 mm 6 mps 756 mmHg 91%
11:00 +17°C° 0.4 mm 6 mps 756 mmHg 91%
12:00 +17°C° 0.4 mm 6 mps 757 mmHg 90%
13:00 +17°C° 0.2 mm 6 mps 757 mmHg 90%
14:00 +17°C° 0.2 mm 7 mps 757 mmHg 89%
15:00 +17°C° 0.2 mm 7 mps 757 mmHg 89%
16:00 +17°C° 0.1 mm 6 mps 757 mmHg 90%
17:00 +16°C° 0.1 mm 6 mps 757 mmHg 90%
18:00 +16°C° 0.1 mm 6 mps 758 mmHg 91%
19:00 +16°C° 0 mm 6 mps 758 mmHg 91%
20:00 +16°C° 0 mm 6 mps 759 mmHg 90%
21:00 +15°C° 0 mm 6 mps 759 mmHg 90%
22:00 +15°C° 0 mm 5 mps 759 mmHg 87%
23:00 +15°C° 0 mm 5 mps 759 mmHg 85%

29 September, Tuesday

Time Temperature Precipitation Wind Pressure Humidity
00:00 +15°C° 0 mm 4 mps 759 mmHg 83%
01:00 +14°C° 0 mm 4 mps 760 mmHg 81%
02:00 +13°C° 0 mm 4 mps 760 mmHg 79%
03:00 +13°C° 0 mm 4 mps 760 mmHg 78%
04:00 +13°C° 0 mm 3 mps 760 mmHg 79%
05:00 +12°C° 0 mm 3 mps 760 mmHg 81%
06:00 +12°C° 0 mm 3 mps 760 mmHg 83%
07:00 +14°C° 0 mm 3 mps 760 mmHg 80%
08:00 +16°C° 0 mm 3 mps 761 mmHg 78%
09:00 +18°C° 0 mm 3 mps 761 mmHg 76%
10:00 +19°C° 0.1 mm 3 mps 761 mmHg 75%
11:00 +19°C° 0.1 mm 3 mps 761 mmHg 74%
12:00 +20°C° 0.1 mm 3 mps 761 mmHg 72%
13:00 +20°C° 0.3 mm 3 mps 761 mmHg 73%
14:00 +19°C° 0.3 mm 3 mps 761 mmHg 74%
15:00 +19°C° 0.3 mm 2 mps 761 mmHg 75%
16:00 +18°C° 0.1 mm 3 mps 761 mmHg 78%
17:00 +17°C° 0.1 mm 3 mps 761 mmHg 81%
18:00 +14°C° 0.1 mm 3 mps 761 mmHg 84%
19:00 +14°C° 0 mm 3 mps 761 mmHg 85%
20:00 +13°C° 0 mm 3 mps 761 mmHg 86%
21:00 +12°C° 0 mm 3 mps 761 mmHg 87%
22:00 +12°C° 0 mm 3 mps 761 mmHg 88%
23:00 +11°C° 0 mm 3 mps 761 mmHg 88%

30 September, Wednesday

Time Temperature Precipitation Wind Pressure Humidity
00:00 +11°C° 0 mm 3 mps 761 mmHg 89%
01:00 +11°C° 0 mm 3 mps 761 mmHg 90%
02:00 +11°C° 0 mm 3 mps 761 mmHg 90%
03:00 +11°C° 0 mm 3 mps 760 mmHg 91%
04:00 +11°C° 0 mm 3 mps 760 mmHg 91%
05:00 +11°C° 0 mm 3 mps 760 mmHg 91%
06:00 +11°C° 0 mm 3 mps 760 mmHg 91%
07:00 +12°C° 0 mm 3 mps 760 mmHg 86%
08:00 +13°C° 0 mm 3 mps 760 mmHg 81%
09:00 +16°C° 0 mm 3 mps 760 mmHg 77%
10:00 +16°C° 0 mm 3 mps 760 mmHg 74%
11:00 +17°C° 0 mm 3 mps 760 mmHg 71%
12:00 +17°C° 0 mm 3 mps 760 mmHg 68%
13:00 +17°C° 0 mm 3 mps 759 mmHg 68%
14:00 +17°C° 0 mm 2 mps 759 mmHg 67%
15:00 +18°C° 0 mm 2 mps 759 mmHg 67%
16:00 +17°C° 0 mm 2 mps 758 mmHg 71%
17:00 +17°C° 0 mm 2 mps 758 mmHg 74%
18:00 +16°C° 0 mm 1 mps 758 mmHg 78%
19:00 +15°C° 0 mm 2 mps 758 mmHg 83%
20:00 +14°C° 0 mm 3 mps 757 mmHg 88%
21:00 +14°C° 0 mm 3 mps 757 mmHg 92%
22:00 +14°C° 0 mm 3 mps 756 mmHg 92%
23:00 +14°C° 0 mm 3 mps 756 mmHg 92%

1 October, Thursday

Time Temperature Precipitation Wind Pressure Humidity
00:00 +14°C° 0 mm 3 mps 755 mmHg 91%
01:00 +14°C° 0.1 mm 4 mps 754 mmHg 92%
02:00 +14°C° 0.1 mm 4 mps 754 mmHg 93%
03:00 +13°C° 0.1 mm 4 mps 753 mmHg 94%
04:00 +13°C° 0.4 mm 4 mps 753 mmHg 93%
05:00 +14°C° 0.4 mm 5 mps 753 mmHg 91%
06:00 +14°C° 0.4 mm 5 mps 752 mmHg 90%
07:00 +14°C° 0.1 mm 5 mps 752 mmHg 86%
08:00 +15°C° 0.1 mm 5 mps 752 mmHg 82%
09:00 +16°C° 0.1 mm 5 mps 751 mmHg 79%
10:00 +17°C° 0.1 mm 5 mps 751 mmHg 75%
11:00 +19°C° 0.1 mm 5 mps 750 mmHg 72%
12:00 +20°C° 0.1 mm 5 mps 750 mmHg 68%
13:00 +19°C° 0.1 mm 5 mps 750 mmHg 68%
14:00 +19°C° 0.1 mm 5 mps 749 mmHg 69%
15:00 +19°C° 0.1 mm 5 mps 749 mmHg 69%
16:00 +17°C° 0.2 mm 5 mps 748 mmHg 74%
17:00 +16°C° 0.2 mm 5 mps 748 mmHg 78%
18:00 +15°C° 0.2 mm 5 mps 748 mmHg 83%
19:00 +14°C° 0 mm 5 mps 747 mmHg 84%
20:00 +14°C° 0 mm 6 mps 747 mmHg 85%
21:00 +14°C° 0 mm 7 mps 747 mmHg 85%
22:00 +14°C° 0 mm 7 mps 746 mmHg 86%
23:00 +14°C° 0 mm 7 mps 746 mmHg 86%
Show more